Home   Weather   Manhattan   Past weeks

Flag for USA Past Weather in Manhattan, Kansas, USA — Yesterday and Last 2 Weeks

Now
49 °F

Sunny.


Feels Like: 46 °F
Forecast: 46 / 67 °F
Wind: 6 mph from West

Location: Manhattan Municipal Airport

Current Time: Oct 23, 2017 at 8:40:41 am

Latest Report: Oct 23, 2017 at 7:52 am


Visibility: 10 mi

Pressure: 29.96 "Hg

Humidity: 71%

Dew Point: 40 °F

Location of ManhattanLocation

Past Weather in Manhattan — Graph

°F

Manhattan Temperature Yesterday

Maximum temperature yesterday: 71 °F (at 3:52 pm)
Minimum temperature yesterday: 40 °F (at 11:52 pm)
Average temperature yesterday: 54 °F

High & Low Weather Summary for the Past Weeks

 TemperatureHumidityPressure
High84 °F (Oct 8, 1:52 pm)100% (Oct 8, 6:52 am)30.42 "Hg (Oct 8, 6:52 am)
Low33 °F (Oct 11, 7:52 am)21% (Oct 22, 3:52 pm)29.57 "Hg (Oct 8, 4:52 pm)
Average59 °F71%30.01 "Hg
* Reported Oct 8 6:52 am — Oct 23 6:52 am, Manhattan. Weather by CustomWeather, © 2017

Note: Actual official high and low records may vary slightly from our data, if they occured in-between our weather recording intervals... More about our weather records

Advertising

Manhattan Weather History for the Previous 24 Hours

Scroll right to see more
 ConditionsComfort  
Time TempWeatherWind HumidityBarometerVisibility
6:52 am
Mon, Oct 23
47 °FClear.6 mph77%29.94 "Hg10 mi
5:52 am45 °FClear.5 mph82%29.90 "Hg10 mi
4:52 am49 °FClear.7 mph74%29.91 "Hg10 mi
3:52 am43 °FClear.No wind86%29.94 "Hg10 mi
2:52 am45 °FClear.No wind82%29.98 "Hg10 mi
1:52 am47 °FClear.8 mph77%29.98 "Hg10 mi
12:52 am40 °FClear.No wind86%30.01 "Hg10 mi
11:52 pm
Sun, Oct 22
40 °FClear.No wind89%30.03 "Hg10 mi
10:52 pm42 °FClear.No wind85%30.05 "Hg10 mi
9:52 pm44 °FClear.No wind79%30.06 "Hg10 mi
8:52 pm46 °FClear.No wind73%30.07 "Hg10 mi
7:52 pm49 °FClear.No wind69%30.08 "Hg10 mi
6:52 pm55 °FClear.No wind49%30.07 "Hg10 mi
5:52 pm65 °FSunny.5 mph37%30.06 "Hg10 mi
4:52 pm70 °FSunny.8 mph21%30.07 "Hg10 mi
3:52 pm71 °FSunny.3 mph21%30.08 "Hg10 mi
2:52 pm70 °FSunny.3 mph25%30.09 "Hg10 mi
1:52 pm69 °FSunny.6 mph27%30.11 "Hg10 mi
12:52 pm67 °FSunny.5 mph35%30.14 "Hg10 mi
11:52 am65 °FSunny.7 mph39%30.16 "Hg10 mi
10:52 am60 °FSunny.8 mph53%30.17 "Hg10 mi
9:52 am51 °FSunny.No wind80%30.17 "Hg10 mi
8:52 am46 °FSunny.3 mph89%30.16 "Hg10 mi
Weather by CustomWeather, © 2017

See weather overview